DW1009 Weather Reports


Display with metric or nautical units.
time (UTC)temp
F
wind
direction
speed
MPH
gust
MPH
rain 1hr
in
rain 24hr
in
rain mn
in
humidity
%
barometer
mb
20260503021405 62 239 1.0 5.0 0.00 0.00 0.00 88 1008.7
20260503020404 62 225 3.0 6.0 0.00 0.00 0.00 87 1008.7
20260503015404 62 200 2.0 5.0 0.00 0.00 0.00 87 1008.8
20260503014405 63 212 2.0 6.0 0.00 0.00 0.00 86 1008.9
20260503013405 63 267 3.0 8.0 0.00 0.00 0.00 85 1008.8
20260503012404 63 215 2.0 8.0 0.00 0.00 0.00 85 1008.9
20260503011405 64 233 5.0 7.0 0.00 0.00 0.00 84 1008.7
20260503010405 64 234 2.0 7.0 0.00 0.00 0.00 84 1008.8
20260503005405 64 291 3.0 6.0 0.00 0.00 0.00 83 1008.8
20260503004406 64 232 2.0 7.0 0.00 0.00 0.00 83 1008.7
20260503001404 64 281 2.0 9.0 0.00 0.00 0.00 83 1008.8
20260503000404 64 240 4.0 8.0 0.00 0.00 0.00 83 1008.9
20260502235405 64 43 2.0 8.0 0.00 0.00 0.00 83 1008.9
20260502234405 64 257 8.0 8.0 0.00 0.00 0.00 83 1008.9
20260502233404 64 227 6.0 9.0 0.00 0.00 0.00 83 1009.0
20260502232404 64 279 2.0 7.0 0.00 0.00 0.00 83 1009.0
20260502231405 64 244 1.0 9.0 0.00 0.00 0.00 83 1009.1
20260502230404 65 332 4.0 8.0 0.00 0.00 0.00 82 1009.2
20260502225405 65 294 4.0 8.0 0.00 0.00 0.00 81 1009.1
20260502224404 65 257 3.0 8.0 0.00 0.00 0.00 81 1009.5
20260502222404 65 269 1.0 10.0 0.00 0.00 0.00 82 1010.1
20260502221404 64 314 4.0 8.0 0.00 0.00 0.00 83 1010.2
20260502220405 64 256 5.0 9.0 0.00 0.00 0.00 83 1010.4
20260502215404 64 218 5.0 9.0 0.00 0.00 0.00 84 1010.8
20260502214404 64 246 3.0 10.0 0.00 0.00 0.00 83 1010.8
20260502212404 64 205 4.0 9.0 0.00 0.00 0.00 84 1011.0
20260502210404 65 278 4.0 7.0 0.00 0.00 0.00 83 1011.2
20260502205404 65 259 2.0 10.0 0.00 0.00 0.00 84 1011.3
20260502203404 64 214 2.0 7.0 0.00 0.00 0.00 85 1011.4
20260502202404 64 215 4.0 6.0 0.00 0.00 0.00 86 1011.5
20260502201404 63 234 4.0 7.0 0.00 0.00 0.00 87 1011.7
20260502200404 63 230 2.0 6.0 0.00 0.00 0.00 87 1011.6
20260502195404 63 236 2.0 7.0 0.00 0.00 0.00 87 1011.7
20260502194404 64 237 2.0 6.0 0.00 0.00 0.00 87 1012.0
20260502193404 63 252 3.0 7.0 0.00 0.00 0.00 87 1012.1
20260502192404 63 253 2.0 8.0 0.00 0.00 0.00 87 1012.0
20260502191404 63 279 3.0 5.0 0.00 0.00 0.00 88 1012.1
20260502190404 63 223 2.0 4.0 0.00 0.00 0.00 89 1012.1
20260502185404 63 309 3.0 6.0 0.00 0.00 0.00 89 1012.4
20260502184404 63 227 2.0 4.0 0.00 0.00 0.00 90 1012.4
20260502183404 62 222 4.0 4.0 0.00 0.00 0.00 90 1012.6
20260502182404 62 227 2.0 4.0 0.00 0.00 0.00 90 1012.6
20260502181404 62 235 3.0 5.0 0.00 0.00 0.00 90 1012.7
20260502180404 62 275 1.0 4.0 0.00 0.00 0.00 90 1012.5
20260502163403 61 287 2.0 4.0 0.00 0.00 0.00 92 1013.0
20260502162403 61 313 0.0 3.0 0.00 0.00 0.00 92 1012.9
20260502161403 61 242 1.0 3.0 0.00 0.00 0.00 92 1012.8
20260502160402 61 328 1.0 2.0 0.00 0.00 0.00 92 1012.9
20260502150401 61 77 1.0 2.0 0.00 0.00 0.00 92 1012.4
20260502130359 60 163 0.0 2.0 0.00 0.00 0.00 94 1011.9
20260502123400 59 215 0.0 3.0 0.00 0.00 0.00 94 1011.9
20260502122359 59 238 1.0 3.0 0.00 0.00 0.00 94 1011.8
20260502121359 59 217 0.0 2.0 0.00 0.00 0.00 94 1011.7
20260502120359 60 259 0.0 3.0 0.00 0.00 0.00 94 1011.7
20260502115358 60 281 1.0 4.0 0.00 0.00 0.00 94 1011.5
20260502114358 60 244 2.0 4.0 0.00 0.00 0.00 94 1011.5
20260502113358 60 161 1.0 3.0 0.00 0.00 0.00 94 1011.4
20260502112358 60 242 1.0 3.0 0.00 0.00 0.00 94 1011.3
20260502110357 59 148 2.0 2.0 0.00 0.00 0.00 95 1011.3
20260502105357 59 213 2.0 3.0 0.00 0.00 0.00 95 1011.3
20260502103358 59 260 0.0 3.0 0.00 0.00 0.00 94 1011.2
20260502102357 59 183 1.0 3.0 0.00 0.00 0.00 95 1011.1
20260502100357 59 250 0.0 2.0 0.00 0.00 0.00 95 1011.2
20260502090357 59 251 2.0 3.0 0.00 0.00 0.00 94 1011.3
20260502070355 60 307 0.0 3.0 0.00 0.00 0.00 93 1012.2
20260502065354 60 284 0.0 2.0 0.00 0.00 0.00 93 1012.1
20260502064354 60 294 1.0 2.0 0.00 0.00 0.00 93 1012.0
20260502062355 60 277 0.0 3.0 0.00 0.00 0.00 92 1012.1
20260502061354 60 262 1.0 3.0 0.00 0.00 0.00 92 1012.0
20260502060354 60 270 0.0 2.0 0.00 0.00 0.00 92 1011.9
20260502055354 60 226 1.0 3.0 0.00 0.00 0.00 92 1011.8
20260502054354 60 12 1.0 4.0 0.00 0.00 0.00 92 1011.8
20260502053354 60 267 3.0 4.0 0.00 0.00 0.00 92 1011.9
20260502052353 60 228 2.0 3.0 0.00 0.00 0.00 92 1011.9
20260502045353 61 267 1.0 3.0 0.00 0.00 0.00 91 1011.9
20260502043353 61 290 2.0 6.0 0.00 0.00 0.00 92 1011.7
20260502042353 61 332 6.0 6.0 0.00 0.00 0.00 92 1011.6
20260502041353 61 274 3.0 5.0 0.00 0.00 0.00 92 1011.6
20260502035352 61 251 3.0 5.0 0.00 0.00 0.00 91 1011.1
20260502034352 61 302 4.0 4.0 0.00 0.00 0.00 91 1011.1
20260502033353 62 355 2.0 5.0 0.00 0.00 0.00 91 1010.7
20260502032354 62 309 1.0 6.0 0.00 0.00 0.00 91 1010.7
20260502031352 62 223 2.0 7.0 0.00 0.00 0.00 91 1010.6
20260502025352 62 11 2.0 5.0 0.00 0.00 0.00 90 1010.4
20260502024352 62 214 2.0 8.0 0.00 0.00 0.00 91 1010.4
20260502023351 63 252 0.0 4.0 0.00 0.00 0.00 90 1010.2
20260502022351 63 200 4.0 6.0 0.00 0.00 0.00 89 1010.1